Skip Page Navigation
NASA JPL Caltech
NASA Logo - Jet Propulsion Laboratory + View the NASA Portal
+ Center for Near-Earth Object Studies
JPL Home Earth Solar System Stars & Galaxies Technology
JPL Solar System Dynamics
BODIES ORBITS EPHEMERIDES TOOLS PHYSICAL DATA DISCOVERY FAQ SITE MAP
JPL Small-Body Database Browser
Search: [ help ]  
532874 (2013 YZ13)
Classification: Amor [NEO]          SPK-ID: 2532874
Ephemeris | Orbit Diagram | Orbital Elements | Mission Design | Physical Parameters | Discovery Circumstances | Close-Approach Data ]

[ show orbit diagram ]
Orbital Elements at Epoch 2459000.5 (2020-May-31.0) TDB
Reference: JPL 46 (heliocentric ecliptic J2000)
 Element Value Uncertainty (1-sigma)   Units 
e .2617074970393024 7.5766e-08  
a 1.390495883165421 9.1096e-09 au
q 1.026592685938744 1.0483e-07 au
i 31.2202636534006 3.1149e-05 deg
node 288.4171868855992 6.1585e-06 deg
peri 235.4924377049218 2.6744e-05 deg
M 289.3480654888288 2.2516e-05 deg
tp 2459118.036984641559
(2020-Sep-25.53698464)
3.802e-05 TDB
period 598.8981726221642
1.64
5.8854e-06
1.611e-08
d
yr
n .6011038544729682 5.907e-09 deg/d
Q 1.754399080392097 1.1494e-08 au
  Orbit Determination Parameters
   # obs. used (total)      274  
   # delay obs. used      0  
   # Doppler obs. used      1  
   data-arc span      6614 days (18.11 yr)  
   first obs. used      2001-06-23  
   last obs. used      2019-08-02  
   planetary ephem.      DE431  
   SB-pert. ephem.      SB431-N16  
   condition code      0  
   norm. resid. RMS      .3581  
   source      ORB  
   producer      Otto Matic  
   solution date      2019-Aug-14 05:34:07  

Additional Information
 Earth MOID = .135444 au 
 Jupiter MOID = 3.45413 au 
 T_jup = 4.595 
[ show covariance matrix ]

Ephemeris | Orbit Diagram | Orbital Elements | Mission Design | Physical Parameters | Discovery Circumstances | Close-Approach Data ]

Physical Parameter Table
Parameter Symbol Value Units Sigma Reference Notes
absolute magnitude H 19.5   n/a MPO477483  
diameter diameter 0.310 km 0.097 urn:nasa:pds:neowise_diameters_albedos::2.0[neos] (http://adsabs.harvard.edu/abs/2015ApJ...814..117N)  
rotation period rot_per 23.86 h n/a LCDB (Rev. 2019-August); Warner et al., 2009 Result based on less than full coverage, so that the period may be wrong by 30 percent or so.
Published Reference List:
[Warner, B.D. (2014) Minor Planet Bull. 41, 157-168.]
geometric albedo albedo 0.266   0.186 urn:nasa:pds:neowise_diameters_albedos::2.0[neos] (http://adsabs.harvard.edu/abs/2015ApJ...814..117N)  

532874 (2013 YZ13)          Discovered 2013-Dec-24 by CSS at Catalina
Reference: Last Updated: 2019-05-29

[ hide close-approach data ]
Close-Approach Data   ...sorted by Date/Time (TDB)
Date/Time (TDB) Time Uncertainty
(days_HH:MM)
Body Nominal Distance (au) Minimum Distance (au) Maximum Distance (au) V-relative (km/s) V-infinity (km/s) JD (TDB) Time Uncertainty (minutes) Semi-major axis (km) Semi-minor axis (km) range-LOV angle (deg) N-sigma BP Orbit Ref. Reference Modified
1909-Jan-12 09:02 < 00:01 Earth 0.455256091327868 0.455242380192563 0.455269802567825 16.5357309261494 16.5353769794696 2418318.876351643 0.461310562936943 765.884204814593 49.787232820399 -26.8444865051488 542701.15081039 T 46 CATAB v2.0f-lin.ifort 2019-Aug-14 05:34:10 2019-Aug-14 05:34
1914-Jan-12 00:08 < 00:01 Earth 0.145920143382457 0.145914750677794 0.145925539009366 17.6818857920744 17.6808530753492 2420144.505615491 0.357346987826298 1068.41766916082 24.3665237939435 75.4761084374767 738157.586885056 T 46 CATAB v2.0f-lin.ifort 2019-Aug-14 05:34:10 2019-Aug-14 05:34
1914-Jun-16 15:10 < 00:01 Earth 0.438661352531595 0.43865890234691 0.438663803096513 16.2220645546331 16.2216901149489 2420300.132159240 0.508094343163674 671.251945791197 26.7405457961313 79.7609831223337 1508286.86355493 T 46 CATAB v2.0f-lin.ifort 2019-Aug-14 05:34:10 2019-Aug-14 05:34
1919-Jun-30 14:37 < 00:01 Earth 0.488208141410466 0.488203916592735 0.488212366528217 15.4551744505694 15.4548213174999 2422140.109131866 0.610489216893847 642.338650703249 21.9244839373994 -70.9494852474301 3013004.29620298 T 46 CATAB v2.0f-lin.ifort 2019-Aug-14 05:34:10 2019-Aug-14 05:34
1932-Jan-14 21:47 < 00:01 Earth 0.199944359272881 0.199934636298468 0.199954083400496 16.3211248637874 16.3203083491466 2426721.407511694 0.121294591518439 900.174106508405 27.3462506853301 -57.4497872220473 777034.281478982 T 46 CATAB v2.0f-lin.ifort 2019-Aug-14 05:34:10 2019-Aug-14 05:34
1932-Jun-12 04:34 < 00:01 Earth 0.495153026050064 0.49514767055278 0.495158381793487 17.5974629708926 17.5971571785313 2426870.690090595 0.380171330017275 616.88368767314 37.6855059238748 64.5716172465426 1199587.5124463 T 46 CATAB v2.0f-lin.ifort 2019-Aug-14 05:34:10 2019-Aug-14 05:34
1937-Jan-05 07:18 < 00:01 Earth 0.376406023904962 0.376394101853272 0.376417946231573 22.0968676040847 22.0965472515046 2428538.804513324 0.500443639675683 783.177802805901 59.4031010314198 40.7577149332307 554366.959649105 T 46 CATAB v2.0f-lin.ifort 2019-Aug-14 05:34:10 2019-Aug-14 05:34
1937-Jun-24 04:51 < 00:01 Earth 0.440494338010487 0.440492188866261 0.440496487449075 15.4875638875035 15.4871733215416 2428708.702070447 0.522107163958534 588.503983464146 20.6540133052687 -79.6992541243717 2312091.98398757 T 46 CATAB v2.0f-lin.ifort 2019-Aug-14 05:34:10 2019-Aug-14 05:34
1950-Jan-14 01:43 < 00:01 Earth 0.378901341878276 0.378891466041977 0.378911217833421 16.3032205057586 16.3027891669286 2433295.571463041 0.182870611872067 596.227694478369 46.0108577878818 -34.4295364799367 599791.082694416 T 46 CATAB v2.0f-lin.ifort 2019-Aug-14 05:34:10 2019-Aug-14 05:34
1955-Jan-10 20:03 < 00:01 Earth 0.193070103423452 0.19306278282996 0.193077424838614 18.6689602547574 18.6682210141845 2435118.335487308 0.304683988206797 728.851742770107 34.0330247871231 60.0504004764275 637351.223210056 T 46 CATAB v2.0f-lin.ifort 2019-Aug-14 05:34:10 2019-Aug-14 05:34
1955-Jun-19 01:35 < 00:01 Earth 0.427865228293673 0.427864467236848 0.427865989477334 15.8967697384464 15.896377994918 2435277.565811599 0.387148577666404 473.292359174121 23.8097700237054 86.4154768359052 1686313.07594347 T 46 CATAB v2.0f-lin.ifort 2019-Aug-14 05:34:10 2019-Aug-14 05:34
1973-Jan-13 15:01 < 00:01 Earth 0.152343157057739 0.152339913505081 0.152346401189297 16.6706110666902 16.6695618829471 2441696.125901629 0.115201981131764 499.472849495152 21.6420808783376 -71.2614573863234 845688.891240836 T 46 CATAB v2.0f-lin.ifort 2019-Aug-14 05:34:10 2019-Aug-14 05:34
1973-Jun-14 00:23 < 00:01 Earth 0.465815024147658 0.465812722517329 0.465817325851095 16.9458686716073 16.9455311206423 2441847.516304110 0.285313840884626 324.721507830047 32.9017023633608 70.1010408615197 1301195.11607172 T 46 CATAB v2.0f-lin.ifort 2019-Aug-14 05:34:10 2019-Aug-14 05:34
1978-Jan-03 13:46 < 00:01 Earth 0.446989209628181 0.446983311765363 0.446995107534321 23.5597366872336 23.5594836716813 2443512.073894076 0.27042955020537 370.210104646312 64.1475306521541 38.0756377290663 591575.71567625 T 46 CATAB v2.0f-lin.ifort 2019-Aug-14 05:34:10 2019-Aug-14 05:34
1978-Jun-26 19:33 < 00:01 Earth 0.454838022552949 0.454836530809622 0.45483951435967 15.4424738888808 15.442094535418 2443686.314540049 0.263418190941257 288.744369494866 20.8942565581403 -75.6461831506154 2555126.95754146 T 46 CATAB v2.0f-lin.ifort 2019-Aug-14 05:34:10 2019-Aug-14 05:34
1991-Jan-14 22:39 < 00:01 Earth 0.320579852370383 0.320576214193936 0.320583490574692 16.1827631443161 16.1822495380112 2448271.443746818 0.0441131252624797 237.306355180803 40.9825896649022 -40.8782453625741 662316.867451088 T 46 CATAB v2.0f-lin.ifort 2019-Aug-14 05:34:10 2019-Aug-14 05:34
1996-Jan-09 21:44 < 00:01 Earth 0.241309548932657 0.241306838963102 0.241312258955653 19.5465377926733 19.5459728891531 2450092.405260076 0.121328444189151 231.368287716949 40.7171693272725 55.5452993049571 644755.00066211 T 46 CATAB v2.0f-lin.ifort 2019-Aug-14 05:34:10 2019-Aug-14 05:34
1996-Jun-20 01:42 < 00:01 Earth 0.425484565383847 0.425484121121746 0.425485009645948 15.7236395575839 15.7232412844909 2450254.570519682 0.175994908047765 159.467350807608 22.1481897583951 -89.8385181974372 1865569.03128985 T 46 CATAB v2.0f-lin.ifort 2019-Aug-14 05:34:10 2019-Aug-14 05:34
2014-Jan-13 11:00 < 00:01 Earth 0.137567318584212 0.137566885391164 0.137567751777463 16.9771690669387 16.9760281700288 2456670.958246747 0.0428047906243905 23.7626201267562 11.9512013330559 -28.8316244829174 1006601.94207608 T 46 CATAB v2.0f-lin.ifort 2019-Aug-14 05:34:10 2019-Aug-14 05:34
2014-Jun-15 09:11 < 00:01 Earth 0.4509817480666 0.450980964507545 0.450982531626475 16.6250458731265 16.6246904913283 2456823.882819341 0.213502544060696 54.4224213461531 23.0574500763137 50.2201581761057 1443372.42677248 T 46 CATAB v2.0f-lin.ifort 2019-Aug-14 05:34:10 2019-Aug-14 05:34
2019-Jan-02 16:19 < 00:01 Earth 0.488473465108628 0.488472612660683 0.488474317557712 24.4588308794874 24.4586078626434 2458486.179764325 0.0752537805284407 91.9714797942779 37.8466590980943 76.6510138111947 1705038.07814407 T 46 CATAB v2.0f-lin.ifort 2019-Aug-14 05:34:10 2019-Aug-14 05:34
2019-Jun-28 12:50 < 00:01 Earth 0.465164330039312 0.465163925272952 0.46516473480657 15.4360897036779 15.4357186182685 2458663.034420284 0.0885399344203897 74.1438147367069 18.0224471000085 -82.7386975643855 3305047.13336195 T 46 CATAB v2.0f-lin.ifort 2019-Aug-14 05:34:10 2019-Aug-14 05:34
2032-Jan-15 10:23 < 00:01 Earth 0.286298953088186 0.286296171931361 0.286301734273116 16.1544363644773 16.1538602503419 2463246.932644491 0.0311990314763974 201.738861424522 36.1607887746266 -47.5770449059906 744918.465517195 T 46 CATAB v2.0f-lin.ifort 2019-Aug-14 05:34:10 2019-Aug-14 05:34
2037-Jan-08 10:13 < 00:01 Earth 0.272258840019986 0.272255259775475 0.272262420321665 20.1255606376079 20.1250743562437 2465066.925558553 0.146168353494067 271.035771175568 46.998349536654 49.8161840170118 589949.856105639 T 46 CATAB v2.0f-lin.ifort 2019-Aug-14 05:34:10 2019-Aug-14 05:34
